Weather History for Katowice, Poland

Change the Weather History Date:

Tuesday, January 15, 2013

  Actual Average Record
Temperature  
Mean Temperature 29 °F -  
Max Temperature 32 °F 33 °F 46 °F (2006)
Min Temperature 26 °F 22 °F 12 °F (2006)
Degree Days  
Heating Degree Days 36    
Moisture  
Dew Point 28 °F    
Average Humidity 99    
Maximum Humidity 100    
Minimum Humidity 93    
Precipitation  
Precipitation 0.00 in - - ()
Sea Level Pressure  
Sea Level Pressure 29.82 in    
Wind  
Wind Speed 3 mph ()    
Max Wind Speed 13 mph    
Max Gust Speed -    
Visibility 1.1 miles    
Events Fog , Snow    
Averages and records for this station are not official NWS values.
T = Trace of Precipitation, MM = Missing Value Source: Averaged Metar Reports

Daily Weather History Graph

Daily Weather History Graph

Search for Another Location

Airport:

Trip Planner

Search our weather history database for the weather conditions in past years. The results will help you decide how hot, cold, wet, or windy it might be!

Date:

Astronomy

Jan. 15, 2013 Rise Set
Actual Time 7:38 AM CET 4:08 PM CET
Civil Twilight 7:00 AM CET 4:45 PM CET
Nautical Twilight 6:20 AM CET 5:26 PM CET
Astronomical Twilight 5:40 AM CET 6:05 PM CET
Moon 9:04 AM CET (1/15) 9:13 PM CET (1/15)
Length of Visible Light 9h 45m
Length of Day
8h 30m
Waxing Crescent, 17% of the Moon is Illuminated
Jan 15
Waxing Crescent
Jan 19
First Quarter
Jan 27
Full
Feb 3
Last Quarter
Feb 10
New

Hourly Weather History & Observations

Time (CET) Temp. Windchill Dew Point Humidity Pressure Visibility Wind Dir Wind Speed Gust Speed Precip Events Conditions
12:00 AM 26.6 °F - 26.6 °F 100% 29.86 in 0.9 mi Calm Calm - N/A Snow Light Snow
12:30 AM 26.6 °F - 26.6 °F 100% 29.89 in 0.7 mi Variable 2.3 mph - N/A Snow Light Snow
1:00 AM 26.6 °F - 26.6 °F 100% 29.89 in 0.7 mi Calm Calm - N/A   Mostly Cloudy
1:30 AM 26.6 °F - 26.6 °F 100% 29.89 in 0.7 mi Calm Calm - N/A   Mostly Cloudy
2:00 AM 26.6 °F - 26.6 °F 100% 29.89 in 0.7 mi Variable 1.2 mph - N/A   Mostly Cloudy
2:30 AM 26.6 °F 22.6 °F 26.6 °F 100% 29.89 in 0.6 mi WSW 3.5 mph - N/A   Mostly Cloudy
3:00 AM 26.6 °F 21.2 °F 26.6 °F 100% 29.89 in 0.6 mi WSW 4.6 mph - N/A   Mostly Cloudy
3:30 AM 26.6 °F - 26.6 °F 100% 29.86 in 0.6 mi Variable 1.2 mph - N/A   Mostly Cloudy
4:00 AM 26.6 °F - 26.6 °F 100% 29.86 in 0.6 mi Variable 2.3 mph - N/A   Mostly Cloudy
4:30 AM 26.6 °F - 26.6 °F 100% 29.86 in 0.6 mi Calm Calm - N/A Fog Patches of Fog
5:00 AM 26.6 °F - 26.6 °F 100% 29.86 in 0.6 mi Calm Calm - N/A   Mostly Cloudy
5:30 AM 26.6 °F - 26.6 °F 100% 29.86 in 0.6 mi Calm Calm - N/A Snow Light Snow
6:00 AM 26.6 °F - 26.6 °F 100% 29.86 in 0.6 mi Variable 2.3 mph - N/A   Mostly Cloudy
6:30 AM 26.6 °F - 26.6 °F 100% 29.86 in 0.6 mi Variable 2.3 mph - N/A   Mostly Cloudy
7:00 AM 26.6 °F - 26.6 °F 100% 29.86 in 0.6 mi East 2.3 mph - N/A   Mostly Cloudy
7:30 AM 26.6 °F - 26.6 °F 100% 29.86 in 0.6 mi East 1.2 mph - N/A   Mostly Cloudy
8:00 AM 26.6 °F - 26.6 °F 100% 29.86 in 0.7 mi Variable 2.3 mph - N/A   Mostly Cloudy
8:30 AM 26.6 °F - 26.6 °F 100% 29.86 in 0.7 mi Variable 2.3 mph - N/A   Mostly Cloudy
9:00 AM 28.4 °F - 28.4 °F 100% 29.86 in 0.7 mi ENE 2.3 mph - N/A   Mostly Cloudy
10:00 AM 28.4 °F - 28.4 °F 100% 29.86 in 0.7 mi Variable 2.3 mph - N/A   Mostly Cloudy
10:30 AM 28.4 °F - 28.4 °F 100% 29.86 in 0.8 mi Variable 2.3 mph - N/A Snow Light Snow
11:00 AM 30.2 °F 25.4 °F 28.4 °F 93% 29.86 in 0.9 mi NE 4.6 mph - N/A Snow Light Snow
11:30 AM 30.2 °F 26.7 °F 28.4 °F 93% 29.86 in 1.2 mi East 3.5 mph - N/A Snow Light Snow
12:00 PM 30.2 °F 25.4 °F 30.2 °F 100% 29.86 in 1.1 mi ENE 4.6 mph - N/A Snow Light Snow
12:30 PM 30.2 °F 23.4 °F 30.2 °F 100% 29.83 in 1.1 mi ENE 6.9 mph - N/A Snow Light Snow
1:00 PM 30.2 °F 23.4 °F 30.2 °F 100% 29.80 in 1.2 mi ENE 6.9 mph - N/A Snow Light Snow
1:30 PM 32.0 °F 26.4 °F 30.2 °F 93% 29.80 in 1.6 mi ENE 5.8 mph - N/A   Mostly Cloudy
2:00 PM 32.0 °F 26.4 °F 30.2 °F 93% 29.80 in 1.6 mi ENE 5.8 mph - N/A   Mostly Cloudy
2:30 PM 32.0 °F 24.8 °F 30.2 °F 93% 29.80 in 1.9 mi ENE 8.1 mph - N/A   Mostly Cloudy
3:00 PM 32.0 °F 25.6 °F 32.0 °F 100% 29.80 in 1.9 mi East 6.9 mph - N/A   Mostly Cloudy
3:30 PM 30.2 °F 23.4 °F 30.2 °F 100% 29.80 in 1.9 mi East 6.9 mph - N/A   Mostly Cloudy
4:00 PM 32.0 °F 25.6 °F 30.2 °F 93% 29.80 in 1.9 mi East 6.9 mph - N/A   Mostly Cloudy
4:30 PM 30.2 °F 20.2 °F 30.2 °F 100% 29.77 in 2.5 mi East 12.7 mph - N/A   Mostly Cloudy
5:00 PM 30.2 °F 21.9 °F 30.2 °F 100% 29.77 in 2.5 mi East 9.2 mph - N/A   Mostly Cloudy
5:30 PM 30.2 °F 22.6 °F 30.2 °F 100% 29.77 in 2.5 mi East 8.1 mph - N/A   Mostly Cloudy
6:00 PM 30.2 °F 21.3 °F 30.2 °F 100% 29.77 in 2.2 mi East 10.4 mph - N/A   Mostly Cloudy
6:30 PM 30.2 °F 21.9 °F 30.2 °F 100% 29.77 in 1.9 mi East 9.2 mph - N/A   Mostly Cloudy
7:00 PM 30.2 °F 26.7 °F 30.2 °F 100% 29.77 in 1.6 mi East 3.5 mph - N/A   Mostly Cloudy
7:30 PM 30.2 °F 24.3 °F 30.2 °F 100% 29.77 in 1.2 mi East 5.8 mph - N/A   Mostly Cloudy
8:00 PM 30.2 °F 23.4 °F 30.2 °F 100% 29.77 in 1.2 mi East 6.9 mph - N/A   Mostly Cloudy
8:30 PM 28.4 °F 20.4 °F 28.4 °F 100% 29.74 in 1.2 mi East 8.1 mph - N/A   Mostly Cloudy
9:00 PM 28.4 °F 22.2 °F 28.4 °F 100% 29.74 in 1.2 mi East 5.8 mph - N/A   Mostly Cloudy
9:30 PM 28.4 °F 23.3 °F 28.4 °F 100% 29.74 in 1.2 mi NE 4.6 mph - N/A   Mostly Cloudy
10:00 PM 28.4 °F 22.2 °F 28.4 °F 100% 29.74 in 1.1 mi NE 5.8 mph - N/A   Mostly Cloudy
10:30 PM 28.4 °F 22.2 °F 28.4 °F 100% 29.74 in 0.9 mi ENE 5.8 mph - N/A   Mostly Cloudy
11:00 PM 30.2 °F 23.4 °F 30.2 °F 100% 29.71 in 0.9 mi ENE 6.9 mph - N/A Snow Light Snow
11:30 PM 30.2 °F - 30.2 °F 100% 29.71 in 0.9 mi Variable 2.3 mph - N/A Snow Light Snow